Long Island Mac Arthur Airport Islip US
ICAO: KISP
IATA: ISP
Category: Medium
Scheduled Services: Yes

Elevation: 99 ft
TransAlt. 18000 ft.

Airport Communications:
NEW YORK APP/DEP:118
ATIS:128.45
CLNC DEL:121.85
CTAF:119.3
GND:135.3
GUARD OPS:45
NEW YORK RDO:122.6
TWR:119.3
UNICOM:122.95

KISP Zoom In..

If you have problems with the map follow the link
https://www.worldairports.se/pages/airport.php?
ICAO=KISP

Runways:

(A) RW 06 length 7006 ft width 150 ft
ILS 108.30 / hdg 59

(B) RW 10 length 5034 ft width 150 ft
---- / hdg 104

(C) RW 15L length 3175 ft width 75 ft
---- / hdg 149

(D) RW 15R length 5186 ft width 150 ft
---- / hdg 149

(E) RW 24 length 7006 ft width 150 ft
ILS 108.30 / hdg 239

(F) RW 28 length 5034 ft width 150 ft
---- / hdg 284

(G) RW 33L length 5186 ft width 150 ft
---- / hdg 329

(H) RW 33R length 3175 ft width 75 ft
---- / hdg 329

Location; KISP
Day. 19 / Time. 00.56 Zulu
* Altimeter: 29.97
* Temperature: 02° c. 35.6°f.
* Wind from: 190° Speed 06 kn.
Dewpoint: 01° c.
Visibility: 1 Statute Miles.
Clouds: Broken 500 ft.
Clouds: Overcast 1200 ft.
Conditions: Mist.

KISP 190056Z 19006KT 1SM R06/P6000FT -RAPL BR BKN005 OVC012 02/01 A2997 RMK AO2 SFC VIS 3 RAB54SNE54 SLP149 P0005 T00170011 $


Wind From 190°
Speed 06 kn.

 
 
jpsmedia worldairports.se 2020   terms of use